Location: Brahman Valley
(40.6513°N, 111.8855°W)
Time: 13:11:33
(UTC+00:00)

Vanguard 2 - Pass Details

Date: 17 May 2021
Orbit: 552 x 2937 km, 32.9° (Epoch: 14 June)

Event Time Altitude Azimuth Distance (km) Brightness Sun altitude
Rises 15:15:17 0° 269° (W) 4,828 11.1 33.4°
Reaches altitude 10° 15:18:05 10° 265° (W) 4,116 10.8 34.0°
Maximum altitude 15:29:35 56° 192° (SSW) 2,756 10.8 36.2°
Drops below altitude 10° 15:46:09 10° 120° (ESE) 5,733 13.0 39.3°
Sets 15:50:53 0° 117° (ESE) 6,785 13.1 40.2°
